BSB police reports ending January 15, 2018

Print
"01/12/2018","00:27","218CR0000910","BUSINESS CHECK","BUSINESS CHECK","531 S MONTANA","",""
"01/12/2018","00:44","218CR0000912","SUSPICIOUS ACTIVITY","SUSPICIOUS ACTIVITY","5103 HARRISON AVE","",""
"01/12/2018","00:48","218CR0000913","BUSINESS CHECK","BUSINESS CHECK","2000 DEWEY BLVD","",""
"01/12/2018","00:51","218CR0000914","BUSINESS CHECK","BUSINESS CHECK","2711 HARRISON AVE","",""
"01/12/2018","01:14","218CR0000916","SUSPICIOUS ACTIVITY","SUSPICIOUS ACTIVITY","1100 BLK N EXCELSIOR","",""
"01/12/2018","02:21","218CR0000919","ASSIST OTHER AGENCY","ASSIST OTHER AGENCY","800 BLK S MAIN","",""
"01/12/2018","04:33","218CR0000920","ACCIDENT- INJURY(MHP)","ACCIDENT- INJURY(MHP)","I15 MM 121 NB","",""
"01/12/2018","04:51","218CR0000921","ALARM - MEDICAL","ALARM - MEDICAL","************","",""
"01/12/2018","05:14","218CR0000923","SUSPICIOUS ACTIVITY","MOTOR VEHICLE THEFT","1000 BLK W WOOLMAN ST","",""
"01/12/2018","05:27","218CR0000924","MEDICAL - EMERGENCY","MEDICAL - EMERGENCY","1828 ADAMS AVE","",""
"01/12/2018","05:49","218CR0000925","ASSIST OTHER AGENCY","ASSIST OTHER AGENCY","I15 MM 138 NB","",""
"01/12/2018","06:21","218CR0000926","LED BUSINESS","LED BUSINESS","155 W GRANITE","",""
"01/12/2018","06:35","218CR0000927","TRAFFIC HAZARD","TRAFFIC HAZARD","I 15 MM 127 S BND","",""
"01/12/2018","07:30","218CR0000928","CIVIL PAPER SERVICE","CIVIL PAPER SERVICE","1906 MASSACHUSETTS","",""
"01/12/2018","07:38","218CR0000929","DISTURBANCE","PAROLE VIOLATION","62 W BROADWAY","",""
"01/12/2018","08:59","218CR0000930","CIVIL PAPER SERVICE","CIVIL PAPER SERVICE","2660 COLUSA","",""
"01/12/2018","09:23","218CR0000931","DISTURBANCE","DISTURBANCE","1004 S WYOMING ST","",""
"01/12/2018","09:25","218CR0000932","DISTURBANCE","DISTURBANCE","SOUTH ROCKER RD","",""
"01/12/2018","09:33","218CR0000933","ACCIDENT- INJURY(MHP)","ACCIDENT- INJURY(MHP)","I 15 MM 111 N BND","",""
"01/12/2018","09:37","218CR0000934","VANDALISM/CRIMINAL MISCHIEF","CRIMINAL MISCHIEF","106 W BROADWAY","",""
"01/12/2018","10:15","218CR0000935","ACCIDENT","ACCIDENT","3600 BLK WHITEWAY","",""
"01/12/2018","10:27","218CR0000936","SUSPICIOUS ACTIVITY","SUSPICIOUS ACTIVITY","800 BLK BROWNS GULCH RD","",""
"01/12/2018","10:34","218CR0000937","CIVIL STANDBY","CIVIL STANDBY","13 SUNVIEW TERRACE","",""
"01/12/2018","10:40","218CR0000938","DETENTION BUSINESS","DETENTION BUSINESS","************","",""
"01/12/2018","10:47","218CR0000939","SUSPICIOUS ACTIVITY","ASSAULT, SIMPLE","55 E GALENA/N AMER INDIAN ALLI","ARREST(s) MADE",""
"01/12/2018","11:00","218CR0000940","DISTURBANCE","DISTURBANCE","1904 PRINCETON","",""
"01/12/2018","11:33","218CR0000941","WANTED PERSON","OUT OF JURISDICTION - FELONY","62 W BROADWAY","",""
"01/12/2018","11:38","218CR0000942","SUSPICIOUS ACTIVITY","SUSPICIOUS ACTIVITY","2500 BLK SHERMAN","",""
"01/12/2018","11:44","218CR0000943","SUICIDE ATTEMPT/THREAT","CRIMINAL MISCHIEF","1904 PRINCETON","",""
"01/12/2018","11:55","218CR0000944","FRAUD","FRAUD","17 W LAPLATTE","",""
"01/12/2018","12:10","218CR0000945","HIT AND RUN","HIT AND RUN, UNATTENDED VEHICL","55 W QUARTZ","",""
"01/12/2018","12:10","218CR0000946","THEFT","THEFT","3937 HARRISON AVE","",""
"01/12/2018","12:25","218CR0000947","VEHICLE INSPECTION","VEHICLE INSPECTION","821 S MONTANA","",""
"01/12/2018","12:51","218CR0000950","DISTURBANCE","DISTURBANCE","1924 PHILLIPS EMERSON SCHOOL","",""
"01/12/2018","12:51","218CR0000951","VANDALISM/CRIMINAL MISCHIEF","ABANDONED VEHICLE","FAIRMONT RD // CRACKERVILLE","",""
"01/12/2018","13:10","218CR0000952","THEFT","THEFT, SHOPLIFT","1301 HARRISON STOKES MARKET","",""
"01/12/2018","13:16","218CR0000953","DISTURBANCE","DISTURBANCE","1908 MONROE AVE","",""
"01/12/2018","13:43","218CR0000954","JUVENILE MISC","JUVENILE MISC","************","",""
"01/12/2018","14:09","218CR0000955","CITIZEN AID","CITIZEN AID","1001 N EMMETT KENNEDY SCHOOL","",""
"01/12/2018","14:21","218CR0000957","DRUGS","DRUGS","************","",""
"01/12/2018","14:24","218CR0000958","TRAFFIC HAZARD","TRAFFIC HAZARD","MONTANA ST AND PLATINUM ST","",""
"01/12/2018","14:27","218CR0000959","FRAUD","THEFT OF IDENTITY","5331 CONTINENTAL DR","",""
"01/12/2018","14:35","218CR0000960","ACCIDENT","ACCIDENT","501 S EXCELSIOR","",""
"01/12/2018","14:38","218CR0000961","FRAUD","GAMBLING FRAUD","2300 HARRISON AVE","",""
"01/12/2018","14:47","218CR0000962","CIVIL PAPER SERVICE","CIVIL PAPER SERVICE","1904 PRINCETON","",""
"01/12/2018","14:49","218CR0000963","ALL OTHER","ALL OTHER","400 S CLARK ST","",""
"01/12/2018","15:13","218CR0000964","THEFT","THEFT, SHOPLIFT","3901 HARRISON AVE","ARREST(s) MADE",""
"01/12/2018","15:36","218CR0000965","WANTED PERSON","WANTED PERSON","************","",""
"01/12/2018","15:40","218CR0000966","DISTURBANCE","DISTURBANCE","725 MARYLAND AVE","",""
"01/12/2018","15:41","218CR0000967","ALARM - BURGLARY","ALARM - BURGLARY","************","",""
"01/12/2018","15:52","218CR0000968","ASSIST OTHER AGENCY","POSSESSION OF DANGEROUS DRUGS","932 S UTAH","ARREST(s) MADE",""
"01/12/2018","16:05","218CR0000969","THEFT","THEFT","MOTEL 6 #206","",""
"01/12/2018","16:08","218CR0000970","JUVENILE MISC","JUVENILE MISC","************","",""
"01/12/2018","16:11","218CR0000971","CITIZEN AID","CITIZEN AID","3400 HILL APT 1105","",""
"01/12/2018","16:17","218CR0000972","SUSPICIOUS ACTIVITY","SUSPICIOUS ACTIVITY","2645 GOODWIN","",""
"01/12/2018","16:20","218CR0000973","SUSPICIOUS ACTIVITY","SUSPICIOUS ACTIVITY","2422 WALNUT","",""
"01/12/2018","17:38","218CR0000976","INTIMIDATION","INTIMIDATION","1408 SILVERBOW HOMES","",""
"01/12/2018","17:45","218CR0000977","SUSPICIOUS ACTIVITY","SUSPICIOUS ACTIVITY","1 HOLIDAY PARK DRIVE","",""
"01/12/2018","17:49","218CR0000978","FRAUD","FRAUD","3636 HARRISON AVE/STAPLES","",""
"01/12/2018","18:20","218CR0000979","FRAUD","FRAUD","2923 STATE ST","",""
"01/12/2018","18:25","218CR0000980","MEDICAL - EMERGENCY","MEDICAL - EMERGENCY","119293 GERMAN GULCH ROAD","",""
"01/12/2018","18:29","218CR0000981","DISTURBANCE","DISTURBANCE","2500 HARVARD","",""
"01/12/2018","19:16","218CR0000982","ASSIST OTHER AGENCY","ASSIST OTHER AGENCY","809 TRAVONIA","",""
"01/12/2018","19:23","218CR0000983","MEDICAL - EMERGENCY","MEDICAL - EMERGENCY","1928 LOWELL AVE","",""
"01/12/2018","19:26","218CR0000984","ASSIST OTHER AGENCY","ASSIST OTHER AGENCY","111 W BROADWAY","",""
"01/12/2018","19:28","218CR0000985","LED BUSINESS","LED BUSINESS","155 W QUARTZ","",""
"01/12/2018","20:17","218CR0000986","ALL OTHER","ALL OTHER","1125 S MAIN ST","",""
"01/12/2018","21:24","218CR0000987","MEDICAL - EMERGENCY","MEDICAL - EMERGENCY","130 FOXTAIL LANE","",""
"01/12/2018","22:08","218CR0000988","ATL","ATL","100 BLK N EXCELSIOR","",""
"01/12/2018","22:27","218CR0000990","THEFT","THEFT, SHOPLIFT","3901 HARRISON AVE","",""
"01/12/2018","22:41","218CR0000991","ALL OTHER","ALL OTHER","1125 S MAIN #301","",""
"01/12/2018","22:43","218CR0000992","PROWLER","PROWLER","3218 EDWARDS","",""
"01/12/2018","22:58","218CR0000993","THEFT","THEFT","205 W GRANITE #410","",""
"01/12/2018","23:16","218CR0000994","T/S","OBSTRUCTING A PEACE OFFICER","916 E FRONT","ARREST(s) MADE",""
"01/12/2018","23:23","218CR0000995","BUSINESS CHECK","BUSINESS CHECK","531 S MONTANA","",""
"01/12/2018","23:27","218CR0000996","ASSIST OTHER AGENCY","ASSIST OTHER AGENCY","801 S UTAH AVE","",""
"01/13/2018","00:13","218CR0000997","WANTED PERSON","WANTED PERSON","************","",""
"01/13/2018","00:21","218CR0000998","WELFARE CHECK","SIWOC","2933 PHILLIPS","",""
"01/13/2018","00:57","218CR0000999","ALL OTHER","ALL OTHER","225 N ALASKA","",""
"01/13/2018","01:23","218CR0001000","ASSIST OTHER AGENCY","ASSIST OTHER AGENCY","2340 CORNELL","",""
"01/13/2018","01:51","218CR0001001","DISTURBANCE","DISTURBANCE","2 E GALENA","",""
"01/13/2018","01:59","218CR0001002","WANTED PERSON","WANTED PERSON","************","",""
"01/13/2018","02:03","218CR0001003","DISTURBANCE","DISTURBANCE","1 W PARK","",""
"01/13/2018","02:19","218CR0001005","BUSINESS CHECK","BUSINESS CHECK","905 N EXCELSIOR","",""
"01/13/2018","02:56","218CR0001006","WELFARE CHECK","WELFARE CHECK","314 W COPPER","",""
"01/13/2018","04:03","218CR0001007","DISTURBANCE","DISTURBANCE","414 S MONTANA #14","",""
"01/13/2018","04:18","218CR0001008","UNWANTED PERSON","UNWANTED PERSON","************","",""
"01/13/2018","06:49","218CR0001009","MEDICAL - EMERGENCY","MEDICAL - EMERGENCY","246 E MERCURY","",""
"01/13/2018","07:36","218CR0001010","SUSPICIOUS ACTIVITY","SUSPICIOUS ACTIVITY","1400 BLK W PARK","",""
"01/13/2018","08:07","218CR0001011","CITIZEN AID","CITIZEN AID","101 E FRONT","",""
"01/13/2018","08:25","218CR0001012","SUSPICIOUS ACTIVITY","SUSPICIOUS ACTIVITY","531 S MONTANA","",""
"01/13/2018","08:28","218CR0001013","PARKING COMPLAINT","PARKING COMPLAINT","1201 S MONTANA","",""
"01/13/2018","08:48","218CR0001014","MEDICAL - EMERGENCY","MEDICAL - EMERGENCY","304 N MAIN","",""
"01/13/2018","08:58","218CR0001015","CIVIL PAPER SERVICE","CIVIL PAPER SERVICE","703 SILVER BOW HOMES","",""
"01/13/2018","09:02","218CR0001016","CIVIL PAPER SERVICE","CIVIL PAPER SERVICE","5005 WYNNE","",""
"01/13/2018","09:14","218CR0001017","CIVIL PAPER SERVICE","CIVIL PAPER SERVICE","1431 MOTORVIEW","",""
"01/13/2018","09:27","218CR0001018","CIVIL PAPER SERVICE","CIVIL PAPER SERVICE","111 W GOLD ST","",""
"01/13/2018","09:51","218CR0001019","SUSPICIOUS ACTIVITY","SUSPICIOUS ACTIVITY","116020 FLEECER RD","",""
"01/13/2018","10:00","218CR0001020","DISTURBANCE","DISTURBANCE","1008 PLACER ST","",""
"01/13/2018","10:27","218CR0001021","FIRE - OTHER","FIRE - OTHER","2136 PRINCETON","",""
"01/13/2018","10:32","218CR0001022","WELFARE CHECK","WELFARE CHECK","435 1/2 W SILVER","",""
"01/13/2018","10:37","218CR0001023","DISTURBANCE","DISTURBANCE","CORNELL AND HARRISON","",""
"01/13/2018","10:42","218CR0001024","BURGLARY","BURGLARY","312 S IDAHO","",""
"01/13/2018","10:46","218CR0001025","DRUGS","DRUGS","************","",""
"01/13/2018","11:33","218CR0001027","CITIZEN AID","CITIZEN AID","CHULA ST AND PARROT ST","",""
"01/13/2018","11:46","218CR0001028","SUSPICIOUS ACTIVITY","SUSPICIOUS ACTIVITY","2610 HARRISON AVE","",""
"01/13/2018","11:50","218CR0001029","THEFT","THEFT","40 BLUE WING","",""
"01/13/2018","12:19","218CR0001030","HARASSMENT","HARASSMENT","1275 HARRISON CVS PHARMACY","",""
"01/13/2018","12:33","218CR0001031","CITIZEN AID","CITIZEN AID","306 W SILVER","",""
"01/13/2018","12:34","218CR0001032","CIVIL PAPER SERVICE","CIVIL PAPER SERVICE","1005 WAUKESHA","",""
"01/13/2018","13:19","218CR0001033","MEDICAL - EMERGENCY","MEDICAL - EMERGENCY","2501 S DAKOTA ST","",""
"01/13/2018","13:37","218CR0001034","MEDICAL - EMERGENCY","MEDICAL - EMERGENCY","3300 HARRISON AVE","",""
"01/13/2018","13:42","218CR0001035","CIVIL PAPER SERVICE","CIVIL PAPER SERVICE","3400 HILL AVE APT 706","",""
"01/13/2018","13:43","218CR0001036","DISTURBANCE","DISTURBANCE","435 1/2 W SILVER","",""
"01/13/2018","14:32","218CR0001037","DISTURBANCE","DISTURBANCE","HOWARD AND WHITE BLVD","",""
"01/13/2018","14:53","218CR0001038","MEDICAL - EMERGENCY","MEDICAL - EMERGENCY","901 DELEWARE AVE","",""
"01/13/2018","14:56","218CR0001039","RESTRAINING ORDER VIOLATION","RESTRAINING ORDER VIOLATION","************","",""
"01/13/2018","15:32","218CR0001040","ASSAULT","ASSAULT, SIMPLE","1 W PARK","",""
"01/13/2018","16:27","218CR0001041","ACCIDENT","ACCIDENT","TOWN PUMP DEWEY // HARRISON","",""
"01/13/2018","16:31","218CR0001042","DISTURBANCE","DISTURBANCE","KOPERVICA PARK","",""
"01/13/2018","16:32","218CR0001043","ALL OTHER","ALL OTHER","109 W PORPHYRY","",""
"01/13/2018","16:36","218CR0001044","JUVENILE MISC","JUVENILE MISC","************","",""
"01/13/2018","16:55","218CR0001045","DRUGS","DRUGS","************","",""
"01/13/2018","16:57","218CR0001046","OPEN BUILDING","OPEN BUILDING","398 PUMP HOUSE ROAD","",""
"01/13/2018","17:00","218CR0001047","ALL OTHER","ALL OTHER","3901 HARRISON AVE","",""
"01/13/2018","17:03","218CR0001048","WELFARE CHECK","WELFARE CHECK","525 S COLORADO","",""
"01/13/2018","17:07","218CR0001049","THEFT","THEFT","3901 HARRISON AVE","",""
"01/13/2018","17:48","218CR0001050","SUSPICIOUS ACTIVITY","SUSPICIOUS ACTIVITY","IRON ST AND MAIN ST","",""
"01/13/2018","18:22","218CR0001052","WELFARE CHECK","WELFARE CHECK","733 S UTAH","",""
"01/13/2018","18:31","218CR0001053","THEFT","THEFT FROM MOTOR VEHICLE","1460 HOLMES AVE","",""
"01/13/2018","18:32","218CR0001054","HARASSMENT","HARASSMENT","2101 HARRISON AVE","",""
"01/13/2018","18:47","218CR0001055","PARKING COMPLAINT","PARKING COMPLAINT","623 W GRANITE","",""
"01/13/2018","18:54","218CR0001056","BURGLARY","BURGLARY","2026 LOCUST","",""
"01/13/2018","19:25","218CR0001057","DISTURBANCE-NOISE","DISTURBANCE-NOISE","1325 W QUARTZ #202","",""
"01/13/2018","19:37","218CR0001058","SUSPICIOUS ACTIVITY","SUSPICIOUS ACTIVITY","WARREN AND FOUR MILE RD","",""
"01/13/2018","19:43","218CR0001059","DISTURBANCE","DISTURBANCE","163 TRINITY LOOP","",""
"01/13/2018","20:07","218CR0001060","INTOXICATED PERSON","INTOXICATED PERSON","1 W PARK ST","",""
"01/13/2018","20:46","218CR0001061","DISTURBANCE","PFMA - MINOR INJ/PHYSICAL CONT","815 E SECOND BIG SKY RENTAL","ARREST(s) MADE",""
"01/13/2018","20:48","218CR0001062","STOLEN VEHICLE","MOTOR VEHICLE THEFT","230 S WASHINGTON","",""
"01/13/2018","21:06","218CR0001063","UNWANTED PERSON","UNWANTED PERSON","************","",""
"01/13/2018","21:34","218CR0001064","ALARM - BURGLARY","ALARM - BURGLARY","************","",""
"01/13/2018","22:23","218CR0001065","SUSPICIOUS ACTIVITY","SUSPICIOUS ACTIVITY","4000 BLK WYNNE AVE","",""
"01/13/2018","22:24","218CR0001066","VANDALISM/CRIMINAL MISCHIEF","DAMAGE TO RENTAL PROPERTY","1230 W PORPHYRY","",""
"01/13/2018","23:03","218CR0001067","PROWLER","PROWLER","2548 PARROT","",""
"01/13/2018","23:20","218CR0001068","ATL","ATL","304 N MAIN","",""
"01/13/2018","23:42","218CR0001069","TRAFFIC HAZARD","TRAFFIC HAZARD","300 BLK S ARIZONA","",""
"01/13/2018","23:50","218CR0001070","BURGLARY","BURGLARY","1370 HARRISON TOWN PUMP","",""
"01/14/2018","00:50","218CR0001072","DISTURBANCE","DISTURBANCE","60 E BROADWAY ACOMA LOUNGE","",""
"01/14/2018","01:21","218CR0001073","ASSAULT","ASSAULT,  W/CUTS/BROKEN BONES","905 N EXCELSIOR SAMS PLACE","",""
"01/14/2018","01:54","218CR0001074","SUSPICIOUS ACTIVITY","SUSPICIOUS ACTIVITY","208 N CLARK","",""
"01/14/2018","02:03","218CR0001075","DISTURBANCE","DISTURBANCE","1 W PARK PARK ST PARTY PALACE","",""
"01/14/2018","02:29","218CR0001076","ILLEGAL SHOOTING","ILLEGAL SHOOTING","200 BLK NASSAU","",""
"01/14/2018","03:02","218CR0001078","SUSPICIOUS ACTIVITY","SUSPICIOUS ACTIVITY","531 S MONTANA TOWN PUMP","",""
"01/14/2018","03:24","218CR0001079","ASSIST OTHER AGENCY","ASSIST OTHER AGENCY","1300 BLK HARRISON AVE","",""
"01/14/2018","03:47","218CR0001080","DISTURBANCE","DISTURBANCE","641 S WYOMING","",""
"01/14/2018","05:20","218CR0001081","STOLEN VEHICLE","STOLEN VEHICLE","600 BLK S IDAHO","",""
"01/14/2018","05:37","218CR0001082","BUSINESS CHECK","BUSINESS CHECK","531 S MONTANA TOWN PUMP","",""
"01/14/2018","07:21","218CR0001083","MEDICAL - EMERGENCY","MEDICAL - EMERGENCY","3131 AMHERST AVE","",""
"01/14/2018","07:57","218CR0001084","MEDICAL - EMERGENCY","MEDICAL - EMERGENCY","155 W QUARTZ","",""
"01/14/2018","08:07","218CR0001085","CIVIL PAPER SERVICE","CIVIL PAPER SERVICE","227 S WASHINGTON ST","",""
"01/14/2018","08:12","218CR0001086","CIVIL PAPER SERVICE","CIVIL PAPER SERVICE","408 S DAKOTA","",""
"01/14/2018","08:13","218CR0001087","MEDICAL - EMERGENCY","MEDICAL - EMERGENCY","1445 WATERLINE RD","",""
"01/14/2018","08:48","218CR0001088","CRIMINAL TRESPASS","THEFT OF SERVICES","2929 HARRISON AVE","ARREST(s) MADE",""
"01/14/2018","08:57","218CR0001089","BURGLARY","BURGLARY","1932 OREGON","",""
"01/14/2018","08:58","218CR0001090","UNWANTED PERSON","RESISTING ARREST","4701 HARRISON AVE","ARREST(s) MADE",""
"01/14/2018","09:58","218CR0001092","MEDICAL - EMERGENCY","MEDICAL - EMERGENCY","50 W BROADWAY #605","",""
"01/14/2018","10:30","218CR0001093","UNKNOWN PROBLEM","UNKNOWN PROBLEM","418 W DALY","",""
"01/14/2018","10:32","218CR0001094","SUICIDE ATTEMPT/THREAT","SUICIDE ATTEMPT/THREAT","************","",""
"01/14/2018","10:33","218CR0001095","PARKING COMPLAINT","PARKING COMPLAINT","405 VIRGINIA ST","",""
"01/14/2018","10:53","218CR0001096","ALARM - BURGLARY","ALARM - BURGLARY","************","",""
"01/14/2018","10:59","218CR0001097","DISTURBANCE","DISTURBANCE","DAKOTA ST AND GOLD ST","",""
"01/14/2018","11:24","218CR0001098","MEDICAL - EMERGENCY","MEDICAL - EMERGENCY","1106 W PORPHYRY","",""
"01/14/2018","11:40","218CR0001099","PARKING COMPLAINT","PARKING COMPLAINT","1109 W WOOLMAN ST","",""
"01/14/2018","11:54","218CR0001100","SUSPICIOUS ACTIVITY","SUSPICIOUS ACTIVITY","I15 W BOUND SCALE ROCKER","",""
"01/14/2018","12:53","218CR0001101","CIVIL PAPER SERVICE","CIVIL PAPER SERVICE","3400 HILL APT 706","",""
"01/14/2018","13:00","218CR0001102","CIVIL PAPER SERVICE","CIVIL PAPER SERVICE","3204 KENNEDY","",""
"01/14/2018","13:09","218CR0001103","CIVIL PAPER SERVICE","CIVIL PAPER SERVICE","5005 WYNNE AVE","",""
"01/14/2018","13:16","218CR0001104","CIVIL PAPER SERVICE","CIVIL PAPER SERVICE","1431 MOTORVIEW","",""
"01/14/2018","13:29","218CR0001105","CIVIL PAPER SERVICE","CIVIL PAPER SERVICE","1526 B ST","",""
"01/14/2018","13:37","218CR0001106","RESTRAINING ORDER VIOLATION","RESTRAINING ORDER VIOLATION","************","",""
"01/14/2018","13:43","218CR0001107","THEFT","THEFT, ALL OTHERS","1426 SUNSET RD","",""
"01/14/2018","13:50","218CR0001108","CIVIL PAPER SERVICE","CIVIL PAPER SERVICE","1681 GRAND AVE","",""
"01/14/2018","13:53","218CR0001109","CIVIL PAPER SERVICE","CIVIL PAPER SERVICE","1705 WALL","",""
"01/14/2018","13:59","218CR0001110","CIVIL PAPER SERVICE","CIVIL PAPER SERVICE","1506 SILVERBOW HOMES","",""
"01/14/2018","14:06","218CR0001111","CIVIL PAPER SERVICE","CIVIL PAPER SERVICE","525 W MERCURY","",""
"01/14/2018","14:10","218CR0001112","CIVIL PAPER SERVICE","CIVIL PAPER SERVICE","701 W BROADWAY","",""
"01/14/2018","14:16","218CR0001113","CIVIL PAPER SERVICE","CIVIL PAPER SERVICE","105 WAUKESHA","",""
"01/14/2018","14:17","218CR0001114","ASSIST OTHER AGENCY","ASSIST OTHER AGENCY","I90 MM 233 WB","",""
"01/14/2018","14:19","218CR0001115","WELFARE CHECK","WELFARE CHECK","509 S CLARK","",""
"01/14/2018","14:33","218CR0001116","UNWANTED PERSON","UNWANTED PERSON","************","",""
"01/14/2018","14:54","218CR0001118","STOLEN VEHICLE","MOTOR VEHICLE THEFT","420 VIRGINIA ST","",""
"01/14/2018","15:08","218CR0001119","MEDICAL - EMERGENCY","MEDICAL - EMERGENCY","100 GARDENS WAY #113","",""
"01/14/2018","15:38","218CR0001121","THEFT","THEFT","225 N ALASKA ST","",""
"01/14/2018","15:51","218CR0001122","ALARM - BURGLARY","ALARM - BURGLARY","************","",""
"01/14/2018","16:43","218CR0001124","FOUND PROPERTY","FOUND PROPERTY","************","",""
"01/14/2018","16:49","218CR0001125","SUSPICIOUS ACTIVITY","SUSPICIOUS ACTIVITY","300 BLK E SECOND","",""
"01/14/2018","16:52","218CR0001126","ANIMAL COMPLAINT-BITE","ANIMAL COMPLAINT-BITE","722 S MAIN","",""
"01/14/2018","17:54","218CR0001127","MEDICAL - EMERGENCY","MEDICAL - EMERGENCY","50 W BROADWAY #303","",""
"01/14/2018","18:21","218CR0001129","MEDICAL - EMERGENCY","MEDICAL - EMERGENCY","60 W GALENA","",""
"01/14/2018","18:48","218CR0001130","SUSPICIOUS ACTIVITY","SUSPICIOUS ACTIVITY","14 BUFFALO ST","",""
"01/14/2018","19:38","218CR0001131","SUSPICIOUS ACTIVITY","SUSPICIOUS ACTIVITY","DEWEY BLVD AND HARRISON AVE","",""
"01/14/2018","19:45","218CR0001132","MEDICAL - EMERGENCY","MEDICAL - EMERGENCY","2145 SOUTH DRIVE","",""
"01/14/2018","19:56","218CR0001133","TRAFFIC HAZARD","TRAFFIC HAZARD","THIRD ST AND WYOMING","",""
"01/14/2018","20:15","218CR0001136","INTOXICATED PERSON","INTOXICATED PERSON","3703 HARRISON","",""
"01/14/2018","20:33","218CR0001137","SUSPICIOUS ACTIVITY","SUSPICIOUS ACTIVITY","OHIO ST AND PLATINUM ST","",""
"01/14/2018","20:46","218CR0001138","SUICIDE ATTEMPT/THREAT","SUICIDE ATTEMPT/THREAT","************","",""
"01/14/2018","21:23","218CR0001139","ASSIST OTHER AGENCY","ASSIST OTHER AGENCY","1370 HARRISON","",""
"01/14/2018","21:39","218CR0001140","ALARM - BURGLARY","ALARM - BURGLARY","************","",""
"01/14/2018","21:51","218CR0001141","PARKING COMPLAINT","PARKING COMPLAINT","1015 WAUKESHA","",""
"01/14/2018","21:52","218CR0001142","BUSINESS CHECK","POSSESS DRUG PARAPHERNALIA","531 S MONTANA","ARREST(s) MADE",""
"01/14/2018","22:01","218CR0001143","SUSPICIOUS ACTIVITY","SUSPICIOUS ACTIVITY","117 S MAIN PEKIN NOODLE PARLOR","",""
"01/14/2018","22:04","218CR0001144","ASSIST OTHER AGENCY","ASSIST OTHER AGENCY","I15 MM 159 SB","",""
"01/14/2018","22:19","218CR0001145","ATL","ATL","531 S MONTANA","",""
"01/14/2018","22:23","218CR0001146","SUSPICIOUS ACTIVITY","SUSPICIOUS ACTIVITY","200 BLK W GRANITE","",""
"01/14/2018","23:33","218CR0001148","ATL","ATL","597 JACK RABBIT LANE","",""
"01/15/2018","00:12","218CR0001149","BUSINESS CHECK","BUSINESS CHECK","2711 HARRISON","",""
"01/15/2018","00:13","218CR0001150","ALARM - BURGLARY","ALARM - BURGLARY","************","",""
"01/15/2018","00:22","218CR0001151","BUSINESS CHECK","BUSINESS CHECK","2711 HARRISON","",""
"01/15/2018","00:34","218CR0001152","DISTURBANCE-NOISE","DISTURBANCE-NOISE","656 S IDAHO","",""
"01/15/2018","00:36","218CR0001153","WELFARE CHECK","WELFARE CHECK","CIVIC CENTER AND HARRISON AVE","",""
"01/15/2018","00:40","218CR0001154","SUSPICIOUS ACTIVITY","SUSPICIOUS ACTIVITY","2305 CONTINENTAL TOWN PUMP","",""
"01/15/2018","01:50","218CR0001155","SUSPICIOUS ACTIVITY","SUSPICIOUS ACTIVITY","GRANITE AND WESTERN","",""
"01/15/2018","03:30","218CR0001156","ACCIDENT - INJURY","AGGRAVATED DUI","I15 MM 128 NB","ARREST(s) MADE",""
"01/15/2018","05:01","218CR0001157","ALARM - BURGLARY","ALARM - BURGLARY","************","",""
"01/15/2018","05:21","218CR0001158","STOLEN VEHICLE","PROBATION VIOLATION","635 S WASHINGTON","ARREST(s) MADE",""
"01/15/2018","07:19","218CR0001159","THEFT","THEFT, SHOPLIFT","2711 HARRISON TOWN PUMP","",""
"01/15/2018","07:40","218CR0001160","CIVIL PAPER SERVICE","CIVIL PAPER SERVICE","62 W BROADWAY","",""
"01/15/2018","07:51","218CR0001161","DRUGS","DRUGS","************","",""
"01/15/2018","07:58","218CR0001162","FIRE- GAS ODOR","FIRE- GAS ODOR","305 E FRONT ST","",""
"01/15/2018","08:12","218CR0001163","CIVIL PAPER SERVICE","CIVIL PAPER SERVICE","5005 WYNNE AVE","",""
"01/15/2018","08:16","218CR0001164","CIVIL PAPER SERVICE","CIVIL PAPER SERVICE","4645 S WYOMING","",""
"01/15/2018","08:22","218CR0001165","CIVIL PAPER SERVICE","CIVIL PAPER SERVICE","536 CALEDONIA","",""
"01/15/2018","08:27","218CR0001167","CIVIL PAPER SERVICE","CIVIL PAPER SERVICE","1736 LONGFELLOW #10","",""
"01/15/2018","08:30","218CR0001168","CIVIL PAPER SERVICE","CIVIL PAPER SERVICE","822 N HENRY","",""